User: anonymous   Login
Location: Betra
(48.4113°N, 8.6634°E)
Time: 11:21:57
(UTC+00:00)
Language:

SJ 16-02 - Orbit

View from above orbital plane
View from above orbital plane
View from above satellite
View from above satellite

Ground track
Ground track

The orbit data is extracted from the following two-line orbital elements,

1 41634U 16043A   24204.18367784  .00004294  00000-0  45370-3 0  9999
2 41634  75.0022 151.1909 0009183 283.8326  76.1839 14.89450164437511
Epoch (UTC): 22 July 2024 04:24:29
Eccentricity: 0.0009183
inclination: 75.0022°
perigee height: 593 km
apogee height: 606 km
right ascension of ascending node: 151.1909°
argument of perigee: 283.8326°
revolutions per day: 14.89450164
mean anomaly at epoch: 76.1839°
orbit number at epoch: 43751

The dashed part of the orbit path shows where the satellite is in the earth's shadow,  

DLR